QPF
0.00 0.00 0.00 0.00 0.00 0.00 0.00 0.00 0.00 0.00 0.00 0.00 0.00 0.00 0.00 0.00 0.00 0.00 0.00 0.00 0.00 0.00 0.00 0.02 0.02 0.01 0.02 0.02 0.00 0.00 0.00 0.00 0.00 0.00 0.00 0.00 0.00 0.00 0.00 0.00 0.03 0.09 0.07 0.00 0.00 0.00 0.00 0.00 0.00
0.00 0.00 0.00 0.00 0.00 0.00 0.00 0.00 0.00 0.00 0.00 0.00 0.00 0.00 0.00 0.00 0.00 0.00 0.00 0.00 0.00 0.00 0.00 0.00 0.03 0.02 0.03 0.03 0.02 0.00 0.00 0.00 0.00 0.01 0.00 0.00 0.00 0.00 0.00 0.01 0.00 0.05 0.12 0.06 0.01 0.00 0.00 0.00 0.00
0.00 0.00 0.00 0.00 0.00 0.00 0.00 0.00 0.00 0.00 0.00 0.00 0.00 0.00 0.00 0.00 0.00 0.00 0.00 0.00 0.01 0.03 0.02 0.01 0.02 0.02 0.01 0.03 0.02 0.02 0.02 0.01 0.00 0.01 0.00 0.00 0.00 0.00 0.00 0.00 0.00 0.01 0.09 0.11 0.08 0.00 0.00 0.00 0.00
0.00 0.00 0.00 0.00 0.00 0.00 0.00 0.00 0.00 0.00 0.00 0.00 0.00 0.00 0.00 0.00 0.00 0.00 0.00 0.04 0.09 0.16 0.10 0.02 0.02 0.05 0.04 0.03 0.02 0.01 0.01 0.01 0.01 0.00 0.00 0.00 0.00 0.00 0.00 0.00 0.00 0.00 0.00 0.00 0.06 0.01 0.00 0.00 0.00
0.00 0.00 0.00 0.00 0.00 0.00 0.00 0.00 0.00 0.00 0.00 0.00 0.00 0.00 0.00 0.00 0.00 0.00 0.00 0.02 0.14 0.20 0.05 0.01 0.00 0.01 0.01 0.01 0.01 0.01 0.01 0.02 0.01 0.02 0.02 0.00 0.00 0.00 0.00 0.00 0.00 0.00 0.00 0.00 0.02 0.03 0.00 0.00 0.00
0.00 0.00 0.00 0.00 0.00 0.00 0.00 0.00 0.00 0.00 0.00 0.00 0.00 0.00 0.00 0.00 0.00 0.00 0.00 0.00 0.05 0.13 0.09 0.03 0.00 0.00 0.00 0.00 0.02 0.03 0.04 0.04 0.03 0.01 0.01 0.03 0.03 0.06 0.05 0.01 0.00 0.00 0.00 0.03 0.02 0.01 0.03 0.01 0.00
0.00 0.00 0.00 0.00 0.00 0.00 0.00 0.00 0.00 0.00 0.00 0.00 0.00 0.00 0.00 0.00 0.00 0.00 0.00 0.00 0.00 0.01 0.02 0.04 0.07 0.10 0.07 0.04 0.15 0.21 0.26 0.06 0.03 0.02 0.01 0.01 0.01 0.01 0.04 0.04 0.04 0.02 0.02 0.03 0.05 0.02 0.05 0.05 0.00
0.00 0.00 0.00 0.00 0.00 0.00 0.00 0.00 0.00 0.00 0.00 0.00 0.00 0.00 0.00 0.00 0.00 0.00 0.00 0.00 0.00 0.00 0.00 0.00 0.01 0.01 0.06 0.05 0.13 0.09 0.29 0.18 0.08 0.06 0.01 0.03 0.02 0.00 0.00 0.01 0.03 0.05 0.04 0.04 0.05 0.03 0.02 0.04 0.01
0.00 0.00 0.00 0.00 0.00 0.00 0.00 0.00 0.00 0.00 0.00 0.00 0.00 0.00 0.00 0.00 0.00 0.00 0.00 0.00 0.00 0.00 0.00 0.00 0.00 0.00 0.00 0.00 0.00 0.00 0.02 0.04 0.07 0.04 0.00 0.03 0.02 0.00 0.01 0.00 0.00 0.01 0.02 0.03 0.03 0.05 0.04 0.05 0.03
0.00 0.00 0.00 0.00 0.00 0.00 0.00 0.00 0.00 0.00 0.00 0.00 0.00 0.00 0.00 0.00 0.00 0.00 0.00 0.00 0.00 0.00 0.00 0.00 0.00 0.00 0.00 0.00 0.00 0.00 0.00 0.00 0.00 0.00 0.00 0.01 0.01 0.01 0.01 0.01 0.01 0.00 0.00 0.01 0.06 0.08 0.12 0.02 0.00
0.00 0.00 0.00 0.00 0.00 0.00 0.00 0.00 0.00 0.00 0.00 0.00 0.00 0.00 0.00 0.00 0.00 0.00 0.00 0.00 0.00 0.00 0.00 0.00 0.00 0.00 0.00 0.00 0.00 0.00 0.00 0.00 0.00 0.00 0.00 0.00 0.00 0.00 0.00 0.00 0.00 0.00 0.00 0.00 0.03 0.08 0.11 0.08 0.03
0.00 0.00 0.00 0.00 0.00 0.00 0.00 0.00 0.00 0.00 0.00 0.00 0.00 0.00 0.00 0.00 0.00 0.00 0.00 0.00 0.00 0.00 0.00 0.00 0.00 0.00 0.00 0.00 0.00 0.00 0.00 0.00 0.00 0.00 0.00 0.00 0.00 0.00 0.00 0.00 0.00 0.00 0.00 0.00 0.00 0.01 0.02 0.06 0.08
0.00 0.00 0.00 0.00 0.00 0.00 0.00 0.00 0.00 0.00 0.00 0.00 0.00 0.00 0.00 0.00 0.00 0.00 0.00 0.00 0.00 0.00 0.00 0.00 0.00 0.00 0.00 0.00 0.00 0.00 0.00 0.00 0.00 0.00 0.00 0.00 0.00 0.00 0.00 0.00 0.00 0.00 0.00 0.00 0.00 0.00 0.02 0.03 0.04
0.00 0.00 0.00 0.00 0.00 0.00 0.00 0.00 0.00 0.00 0.00 0.00 0.00 0.00 0.00 0.00 0.00 0.00 0.00 0.00 0.00 0.00 0.00 0.00 0.00 0.00 0.00 0.00 0.00 0.00 0.00 0.00 0.00 0.00 0.00 0.00 0.00 0.00 0.00 0.00 0.00 0.00 0.00 0.00 0.00 0.00 0.00 0.00 0.01
0.00 0.00 0.00 0.00 0.00 0.00 0.00 0.00 0.00 0.00 0.00 0.00 0.00 0.00 0.00 0.00 0.00 0.00 0.00 0.00 0.00 0.00 0.00 0.00 0.00 0.00 0.00 0.00 0.00 0.00 0.00 0.00 0.00 0.00 0.00 0.00 0.00 0.00 0.00 0.00 0.00 0.00 0.00 0.00 0.00 0.00 0.00 0.00 0.00
0.00 0.00 0.00 0.00 0.00 0.00 0.00 0.00 0.00 0.00 0.00 0.00 0.00 0.00 0.00 0.00 0.00 0.00 0.00 0.00 0.00 0.00 0.00 0.00 0.00 0.00 0.00 0.00 0.00 0.00 0.00 0.00 0.00 0.00 0.00 0.00 0.00 0.00 0.00 0.00 0.00 0.00 0.00 0.00 0.00 0.00 0.00 0.00 0.00
0.00 0.00 0.00 0.00 0.00 0.00 0.00 0.00 0.00 0.00 0.00 0.00 0.00 0.00 0.00 0.00 0.00 0.00 0.00 0.00 0.00 0.00 0.00 0.00 0.00 0.00 0.00 0.00 0.00 0.00 0.00 0.00 0.00 0.00 0.00 0.00 0.00 0.00 0.00 0.00 0.00 0.00 0.00 0.00 0.00 0.00 0.00 0.00 0.00
0.00 0.00 0.00 0.00 0.00 0.00 0.00 0.00 0.00 0.00 0.00 0.00 0.00 0.00 0.00 0.00 0.00 0.00 0.00 0.00 0.00 0.00 0.00 0.00 0.00 0.00 0.00 0.00 0.00 0.00 0.00 0.00 0.00 0.00 0.00 0.00 0.00 0.00 0.00 0.00 0.00 0.00 0.00 0.00 0.00 0.00 0.00 0.00 0.00
0.00 0.00 0.00 0.00 0.00 0.00 0.00 0.00 0.00 0.00 0.00 0.00 0.00 0.00 0.00 0.00 0.00 0.00 0.00 0.00 0.00 0.00 0.00 0.00 0.00 0.00 0.00 0.00 0.00 0.00 0.00 0.00 0.00 0.00 0.00 0.00 0.00 0.00 0.00 0.00 0.00 0.00 0.00 0.00 0.00 0.00 0.00 0.00 0.00
0.00 0.00 0.00 0.00 0.00 0.00 0.00 0.00 0.00 0.00 0.00 0.00 0.00 0.00 0.00 0.00 0.00 0.00 0.00 0.00 0.00 0.00 0.00 0.00 0.00 0.00 0.00 0.00 0.00 0.00 0.00 0.00 0.00 0.00 0.00 0.00 0.00 0.00 0.00 0.00 0.00 0.00 0.00 0.00 0.00 0.00 0.00 0.00 0.00
0.00 0.00 0.00 0.00 0.00 0.00 0.00 0.00 0.00 0.00 0.00 0.00 0.00 0.00 0.00 0.00 0.00 0.00 0.00 0.00 0.00 0.00 0.00 0.00 0.00 0.00 0.00 0.00 0.00 0.00 0.00 0.00 0.00 0.00 0.00 0.00 0.00 0.00 0.00 0.00 0.00 0.00 0.00 0.00 0.00 0.00 0.00 0.00 0.00
0.00 0.00 0.00 0.00 0.00 0.00 0.00 0.00 0.00 0.00 0.00 0.00 0.00 0.00 0.00 0.00 0.00 0.00 0.00 0.00 0.00 0.00 0.00 0.00 0.00 0.00 0.00 0.00 0.00 0.00 0.00 0.00 0.00 0.00 0.00 0.00 0.00 0.00 0.00 0.00 0.00 0.00 0.00 0.00 0.00 0.00 0.01 0.01 0.01
0.00 0.00 0.00 0.00 0.00 0.00 0.00 0.00 0.00 0.00 0.00 0.00 0.00 0.00 0.00 0.00 0.00 0.00 0.00 0.00 0.00 0.00 0.00 0.00 0.00 0.00 0.00 0.00 0.00 0.00 0.00 0.00 0.00 0.00 0.00 0.00 0.00 0.00 0.00 0.00 0.00 0.00 0.00 0.00 0.00 0.01 0.01 0.01 0.02
0.00 0.00 0.00 0.00 0.00 0.00 0.00 0.00 0.00 0.00 0.00 0.00 0.00 0.00 0.00 0.00 0.00 0.00 0.00 0.00 0.00 0.00 0.00 0.00 0.00 0.00 0.00 0.00 0.00 0.00 0.00 0.00 0.00 0.00 0.00 0.00 0.00 0.00 0.00 0.00 0.00 0.00 0.00 0.00 0.00 0.00 0.00 0.01 0.02
0.00 0.00 0.00 0.00 0.00 0.00 0.00 0.00 0.00 0.00 0.00 0.00 0.00 0.00 0.00 0.00 0.00 0.00 0.00 0.00 0.00 0.00 0.00 0.00 0.00 0.00 0.00 0.00 0.00 0.00 0.00 0.00 0.00 0.00 0.00 0.00 0.00 0.00 0.00 0.00 0.00 0.00 0.00 0.00 0.00 0.00 0.00 0.00 0.01
0.00 0.00 0.00 0.00 0.00 0.00 0.00 0.00 0.00 0.00 0.00 0.00 0.00 0.00 0.00 0.00 0.00 0.00 0.00 0.00 0.00 0.00 0.00 0.00 0.00 0.00 0.00 0.00 0.00 0.00 0.00 0.00 0.00 0.00 0.00 0.00 0.00 0.00 0.00 0.00 0.00 0.00 0.00 0.00 0.00 0.00 0.00 0.00 0.00
0.00 0.00 0.00 0.00 0.00 0.00 0.00 0.00 0.00 0.00 0.00 0.00 0.00 0.00 0.00 0.00 0.00 0.00 0.00 0.00 0.00 0.00 0.00 0.00 0.00 0.00 0.00 0.00 0.00 0.00 0.00 0.00 0.00 0.00 0.00 0.00 0.00 0.00 0.00 0.00 0.00 0.00 0.00 0.00 0.00 0.00 0.00 0.00 0.00
0.00 0.00 0.00 0.00 0.00 0.00 0.00 0.00 0.00 0.00 0.00 0.00 0.00 0.00 0.00 0.00 0.00 0.00 0.00 0.00 0.00 0.00 0.00 0.00 0.00 0.00 0.00 0.00 0.00 0.00 0.00 0.00 0.00 0.00 0.00 0.00 0.00 0.00 0.00 0.00 0.00 0.00 0.00 0.00 0.00 0.00 0.00 0.00 0.00
0.00 0.00 0.00 0.00 0.00 0.00 0.00 0.00 0.00 0.00 0.00 0.00 0.00 0.00 0.00 0.00 0.00 0.00 0.00 0.00 0.00 0.00 0.00 0.00 0.00 0.00 0.00 0.00 0.00 0.00 0.00 0.00 0.00 0.00 0.00 0.00 0.00 0.00 0.00 0.00 0.00 0.00 0.00 0.00 0.00 0.00 0.00 0.00 0.00
0.00 0.00 0.00 0.00 0.00 0.00 0.00 0.00 0.00 0.00 0.00 0.00 0.00 0.00 0.00 0.00 0.00 0.00 0.00 0.00 0.00 0.00 0.00 0.00 0.00 0.00 0.00 0.00 0.00 0.00 0.00 0.00 0.00 0.00 0.00 0.00 0.00 0.00 0.00 0.00 0.00 0.00 0.00 0.00 0.00 0.00 0.00 0.00 0.00
MSLP
1013.90 1014.03 1014.07 1014.26 1015.35 1015.32 1014.58 1014.18 1013.93 1013.47 1013.41 1013.49 1013.46 1013.36 1013.47 1013.77 1013.71 1014.33 1014.06 1013.99 1013.82 1013.97 1014.12 1014.48 1014.74 1014.93 1015.15 1015.35 1015.54 1015.78 1015.99 1016.10 1016.26 1016.43 1016.51 1016.68 1016.74 1016.88 1017.03 1017.23 1017.40 1017.57 1017.64 1017.70 1017.82 1017.96 1018.14 1018.31 1018.41
1014.02 1013.98 1014.32 1015.03 1015.49 1015.47 1014.76 1014.30 1013.98 1013.67 1013.67 1013.77 1013.75 1013.90 1014.00 1014.39 1014.31 1014.22 1014.21 1014.04 1013.87 1013.94 1014.31 1014.57 1014.90 1015.11 1015.27 1015.45 1015.65 1015.87 1016.05 1016.16 1016.32 1016.48 1016.68 1016.78 1016.91 1017.05 1017.14 1017.29 1017.36 1017.52 1017.71 1017.87 1017.99 1018.21 1018.43 1018.59 1018.74
1013.97 1014.14 1014.87 1015.55 1016.01 1015.58 1014.99 1014.37 1014.07 1013.99 1014.09 1014.01 1014.21 1014.36 1014.59 1014.99 1014.82 1014.65 1014.50 1014.13 1013.73 1014.03 1014.39 1014.70 1014.97 1015.19 1015.40 1015.51 1015.65 1015.86 1016.03 1016.17 1016.31 1016.54 1016.66 1016.85 1017.00 1017.15 1017.31 1017.41 1017.48 1017.57 1017.80 1018.08 1018.23 1018.43 1018.57 1018.76 1018.93
1014.18 1014.83 1016.10 1015.86 1015.85 1015.30 1015.02 1014.56 1014.36 1014.27 1014.33 1014.36 1014.53 1014.85 1015.22 1015.46 1015.34 1015.26 1014.83 1014.37 1014.17 1014.31 1014.65 1014.94 1015.15 1015.44 1015.69 1015.77 1015.87 1015.92 1016.00 1016.11 1016.31 1016.56 1016.77 1016.89 1017.12 1017.24 1017.34 1017.52 1017.67 1017.71 1017.86 1018.06 1018.29 1018.50 1018.73 1018.84 1019.03
1014.97 1015.72 1016.34 1016.47 1016.01 1015.32 1014.99 1014.70 1014.57 1014.55 1014.63 1014.73 1014.77 1015.31 1015.59 1015.63 1015.70 1015.51 1015.24 1015.03 1015.02 1015.23 1015.32 1015.33 1015.44 1015.66 1015.82 1015.98 1016.01 1016.10 1016.22 1016.30 1016.42 1016.54 1016.73 1016.86 1017.01 1017.24 1017.43 1017.49 1017.69 1017.78 1017.92 1018.02 1018.30 1018.54 1018.75 1018.93 1019.09
1015.53 1016.28 1016.74 1016.76 1016.12 1015.43 1014.98 1014.72 1014.59 1014.77 1014.94 1015.06 1015.25 1015.50 1015.92 1016.00 1015.94 1016.05 1015.78 1015.74 1015.65 1015.95 1016.14 1016.04 1015.98 1016.10 1016.27 1016.27 1016.20 1016.24 1016.32 1016.51 1016.52 1016.65 1016.78 1016.96 1017.03 1017.24 1017.46 1017.52 1017.69 1017.84 1017.93 1018.01 1018.20 1018.51 1018.66 1018.92 1019.03
1015.76 1016.40 1016.70 1016.52 1016.02 1015.51 1014.73 1014.71 1014.82 1014.85 1015.15 1015.32 1015.36 1015.86 1016.28 1016.18 1016.34 1016.44 1016.47 1016.26 1016.18 1016.48 1016.47 1016.51 1016.83 1016.67 1016.75 1016.62 1016.56 1016.48 1016.32 1016.25 1016.48 1016.61 1016.76 1016.96 1017.05 1017.20 1017.33 1017.45 1017.58 1017.83 1017.91 1017.96 1018.18 1018.40 1018.67 1018.90 1019.05
1016.08 1016.52 1016.84 1016.55 1016.19 1015.42 1014.94 1014.72 1014.67 1015.03 1015.35 1015.60 1015.61 1015.92 1016.25 1016.09 1016.47 1016.75 1016.75 1016.79 1016.84 1016.99 1017.09 1017.19 1017.13 1017.25 1017.37 1017.38 1017.13 1016.98 1017.00 1016.42 1016.59 1016.57 1016.94 1016.96 1017.13 1017.25 1017.47 1017.52 1017.61 1017.75 1017.87 1018.02 1018.13 1018.35 1018.57 1018.76 1018.99
1016.07 1016.65 1016.92 1016.43 1016.20 1015.40 1015.20 1015.23 1014.99 1014.92 1015.27 1015.63 1015.84 1015.93 1015.96 1016.12 1016.57 1016.69 1016.84 1016.99 1017.22 1017.47 1017.56 1017.57 1017.57 1017.58 1017.61 1017.52 1017.45 1017.20 1017.04 1016.99 1016.86 1016.88 1017.10 1017.14 1017.22 1017.37 1017.58 1017.65 1017.69 1017.75 1017.91 1018.00 1018.04 1018.16 1018.35 1018.67 1018.94
1016.41 1016.92 1016.37 1015.93 1015.73 1015.48 1015.21 1015.37 1015.32 1015.20 1015.39 1015.77 1016.02 1016.22 1016.25 1016.33 1016.59 1016.89 1017.19 1017.41 1017.63 1017.80 1017.97 1018.01 1017.97 1017.83 1017.67 1017.72 1017.81 1017.67 1017.55 1017.48 1017.45 1017.40 1017.41 1017.44 1017.52 1017.65 1017.67 1017.71 1017.80 1017.87 1017.94 1017.95 1017.97 1017.99 1018.20 1018.52 1018.61
1016.45 1016.40 1016.07 1015.67 1015.57 1015.41 1015.38 1015.41 1015.49 1015.50 1015.49 1015.45 1015.69 1016.22 1016.47 1016.66 1016.96 1017.24 1017.57 1017.77 1017.94 1018.22 1018.29 1018.23 1018.16 1018.19 1017.99 1018.04 1018.09 1018.10 1018.18 1018.03 1018.00 1018.00 1017.85 1017.83 1017.74 1017.82 1017.80 1017.74 1017.71 1017.89 1017.89 1017.82 1017.82 1017.88 1018.06 1018.17 1018.47
1016.33 1016.01 1015.89 1015.68 1015.64 1015.50 1015.49 1015.52 1015.62 1015.69 1015.38 1015.14 1015.45 1015.99 1016.48 1016.90 1017.26 1017.54 1017.83 1018.04 1018.20 1018.37 1018.53 1018.58 1018.51 1018.50 1018.52 1018.50 1018.47 1018.57 1018.42 1018.35 1018.37 1018.42 1018.33 1018.28 1018.15 1018.05 1018.02 1017.95 1017.99 1017.96 1018.01 1018.01 1018.04 1018.08 1018.04 1018.19 1018.49
1016.19 1015.98 1015.92 1015.79 1015.75 1015.71 1015.58 1015.83 1015.82 1015.61 1015.52 1015.43 1015.77 1016.29 1016.61 1017.13 1017.53 1017.82 1018.06 1018.38 1018.43 1018.61 1018.81 1018.82 1018.79 1018.78 1018.80 1018.69 1018.84 1018.91 1018.82 1018.74 1018.83 1018.68 1018.61 1018.53 1018.50 1018.38 1018.21 1018.11 1018.05 1018.03 1018.05 1018.04 1017.98 1018.04 1018.17 1018.20 1018.36
1016.39 1016.16 1016.04 1015.94 1015.88 1015.90 1015.85 1016.02 1015.99 1015.75 1015.90 1015.89 1016.11 1016.55 1016.77 1017.06 1017.45 1017.96 1018.32 1018.57 1018.69 1018.78 1018.99 1019.05 1019.02 1019.07 1019.05 1019.06 1019.21 1019.20 1019.15 1019.07 1019.01 1018.96 1018.90 1018.81 1018.73 1018.66 1018.41 1018.19 1018.24 1018.09 1018.07 1018.01 1018.04 1018.00 1018.09 1018.16 1018.24
1016.47 1016.59 1016.29 1016.10 1016.08 1016.14 1016.06 1016.23 1016.00 1015.93 1016.21 1016.18 1016.43 1016.86 1016.94 1017.14 1017.53 1017.82 1018.16 1018.45 1018.65 1018.92 1019.13 1019.25 1019.26 1019.33 1019.29 1019.37 1019.42 1019.41 1019.38 1019.26 1019.15 1019.09 1018.97 1018.85 1018.71 1018.71 1018.59 1018.40 1018.24 1018.25 1018.15 1018.17 1018.07 1018.05 1018.05 1018.21 1018.47
1017.06 1017.10 1016.92 1016.40 1016.31 1016.33 1016.37 1016.15 1015.96 1016.12 1016.34 1016.59 1016.70 1017.07 1017.16 1017.27 1017.47 1017.83 1018.14 1018.37 1018.75 1018.92 1019.14 1019.39 1019.46 1019.49 1019.52 1019.53 1019.59 1019.51 1019.45 1019.36 1019.30 1019.16 1019.14 1019.03 1018.87 1018.75 1018.59 1018.46 1018.34 1018.24 1018.19 1018.15 1018.19 1018.22 1018.34 1018.37 1018.46
1018.19 1017.79 1017.43 1016.69 1016.54 1016.65 1016.73 1016.41 1016.27 1016.19 1016.72 1016.66 1016.72 1017.13 1017.31 1017.55 1017.67 1017.90 1018.18 1018.46 1018.72 1019.09 1019.32 1019.59 1019.71 1019.78 1019.77 1019.72 1019.57 1019.52 1019.48 1019.44 1019.40 1019.21 1019.08 1018.99 1018.88 1018.76 1018.61 1018.47 1018.31 1018.25 1018.22 1018.21 1018.33 1018.34 1018.39 1018.28 1018.37
1018.20 1017.95 1017.55 1017.28 1017.03 1016.95 1016.99 1016.56 1016.46 1016.61 1016.62 1016.82 1017.02 1017.18 1017.39 1017.64 1017.67 1017.87 1018.32 1018.63 1019.03 1019.28 1019.53 1019.81 1020.02 1020.06 1020.05 1019.93 1019.72 1019.55 1019.43 1019.40 1019.31 1019.19 1019.06 1019.01 1018.87 1018.74 1018.57 1018.37 1018.27 1018.19 1018.12 1018.17 1018.27 1018.32 1018.36 1018.34 1018.39
1017.99 1017.87 1017.78 1017.23 1017.18 1017.20 1017.13 1016.81 1016.38 1016.43 1016.87 1016.92 1017.02 1017.42 1017.50 1017.71 1017.95 1018.19 1018.58 1018.92 1019.29 1019.63 1019.85 1020.08 1020.16 1020.14 1019.93 1019.79 1019.66 1019.49 1019.51 1019.40 1019.23 1019.07 1018.99 1018.86 1018.79 1018.71 1018.58 1018.37 1018.23 1018.13 1018.20 1018.16 1018.19 1018.24 1018.26 1018.28 1018.34
1018.37 1018.21 1018.10 1017.79 1017.55 1017.56 1017.38 1016.84 1016.29 1016.28 1016.32 1016.43 1016.64 1016.96 1017.35 1017.67 1018.08 1018.43 1018.82 1019.26 1019.53 1019.82 1020.04 1020.14 1020.31 1020.20 1020.17 1020.13 1020.10 1020.03 1019.90 1019.58 1019.51 1019.26 1018.99 1018.78 1018.63 1018.52 1018.39 1018.22 1018.09 1017.99 1018.03 1017.97 1018.14 1018.15 1017.93 1017.95 1018.01
1018.44 1018.56 1018.50 1018.58 1018.38 1018.40 1018.09 1016.99 1016.25 1015.93 1015.97 1016.27 1016.54 1016.54 1016.82 1017.28 1017.71 1018.40 1018.79 1019.31 1019.80 1020.03 1020.15 1020.31 1020.39 1020.32 1020.28 1020.24 1020.11 1019.98 1019.78 1019.59 1019.35 1019.28 1019.02 1018.84 1018.68 1018.49 1018.34 1018.11 1018.01 1017.83 1017.81 1017.72 1017.66 1017.77 1017.75 1017.57 1017.66
1018.75 1018.58 1018.91 1019.32 1019.61 1019.72 1019.21 1018.08 1016.67 1016.14 1016.02 1016.04 1016.21 1016.64 1016.57 1016.89 1017.55 1018.16 1018.86 1019.38 1019.94 1020.38 1020.45 1020.52 1020.61 1020.62 1020.56 1020.47 1020.25 1020.24 1020.19 1019.92 1019.69 1019.57 1019.30 1018.95 1018.53 1018.31 1018.13 1018.00 1017.92 1017.75 1017.37 1017.33 1017.21 1017.12 1017.18 1017.34 1017.23
1019.09 1019.09 1019.73 1020.30 1020.93 1020.83 1020.05 1019.60 1016.61 1016.43 1016.06 1015.64 1015.77 1016.43 1016.80 1016.71 1016.99 1017.78 1018.72 1019.29 1019.92 1020.44 1020.63 1020.80 1020.78 1020.73 1020.69 1020.58 1020.51 1020.41 1020.27 1020.11 1019.80 1019.51 1019.14 1018.76 1018.40 1018.21 1017.91 1017.78 1017.64 1017.57 1017.30 1017.06 1016.92 1016.81 1016.78 1016.72 1016.76
1019.06 1019.58 1020.49 1021.56 1022.03 1021.87 1020.33 1019.61 1017.37 1016.38 1015.77 1015.54 1015.63 1016.03 1016.61 1017.52 1017.47 1017.99 1018.77 1019.49 1020.11 1020.51 1020.80 1020.96 1020.86 1020.83 1020.79 1020.73 1020.67 1020.56 1020.35 1020.08 1019.69 1019.31 1019.03 1018.66 1018.36 1017.98 1017.67 1017.64 1017.53 1017.31 1017.01 1016.76 1016.58 1016.47 1016.45 1016.35 1016.22
1019.08 1019.93 1021.41 1022.51 1023.04 1022.02 1021.16 1020.47 1017.11 1016.12 1015.82 1015.96 1015.86 1016.24 1016.62 1017.36 1018.44 1018.73 1019.00 1019.54 1020.14 1020.64 1020.75 1020.86 1020.91 1020.85 1020.75 1020.74 1020.76 1020.65 1020.39 1020.07 1019.70 1019.40 1019.17 1018.71 1018.21 1017.79 1017.43 1017.36 1017.18 1016.92 1016.55 1016.27 1016.15 1016.08 1015.99 1016.03 1016.00
1019.40 1019.88 1020.94 1022.31 1023.14 1022.35 1021.36 1019.65 1016.84 1016.30 1016.04 1016.02 1016.08 1016.53 1017.21 1017.75 1018.45 1019.20 1019.70 1019.75 1020.15 1020.51 1020.73 1020.93 1020.91 1020.79 1020.77 1020.85 1020.74 1020.55 1020.27 1019.96 1019.62 1019.35 1019.08 1018.60 1018.27 1017.79 1017.34 1017.04 1016.80 1016.48 1016.12 1015.86 1015.77 1015.66 1015.58 1015.53 1015.55
1019.89 1020.18 1020.54 1021.53 1023.03 1022.96 1020.92 1018.95 1016.91 1016.58 1016.40 1016.48 1016.75 1016.83 1017.47 1018.11 1018.55 1019.25 1019.85 1020.40 1020.66 1020.71 1020.87 1020.99 1020.93 1020.83 1020.98 1020.98 1020.76 1020.43 1020.07 1019.67 1019.47 1019.18 1018.89 1018.46 1018.08 1017.63 1017.05 1016.66 1016.45 1016.10 1015.74 1015.56 1015.41 1015.31 1015.19 1015.15 1015.02
1019.50 1020.13 1020.87 1021.55 1022.40 1022.34 1020.73 1019.48 1017.55 1016.77 1016.83 1017.02 1017.35 1017.43 1017.79 1018.08 1018.61 1019.08 1019.84 1020.44 1020.95 1021.13 1021.05 1020.91 1020.90 1021.04 1021.13 1021.01 1020.70 1020.31 1019.88 1019.49 1019.29 1019.04 1018.73 1018.35 1017.92 1017.53 1017.06 1016.61 1016.19 1015.76 1015.45 1015.23 1015.06 1014.87 1014.72 1014.63 1014.48
1019.85 1020.27 1020.85 1021.36 1021.95 1022.07 1021.32 1018.78 1017.36 1017.15 1017.11 1017.37 1017.57 1017.80 1018.03 1018.44 1018.73 1019.19 1019.86 1020.61 1020.77 1021.17 1021.21 1020.87 1020.94 1021.08 1021.00 1020.91 1020.64 1020.20 1019.63 1019.32 1019.16 1018.97 1018.69 1018.38 1017.86 1017.43 1016.94 1016.47 1015.99 1015.55 1015.12 1014.73 1014.60 1014.41 1014.13 1013.94 1013.82
1019.21 1019.84 1020.48 1021.13 1021.95 1022.02 1021.11 1018.74 1017.25 1017.19 1016.89 1017.18 1017.55 1017.86 1018.40 1018.74 1019.17 1019.45 1019.81 1020.50 1020.86 1021.12 1021.14 1021.04 1021.03 1021.05 1020.98 1020.81 1020.44 1019.96 1019.52 1019.25 1019.11 1018.92 1018.61 1018.26 1017.56 1017.19 1016.74 1016.25 1015.74 1015.19 1014.63 1014.17 1013.83 1013.55 1013.31 1013.17 1013.10
Thickness
5696 5695 5695 5691 5674 5666 5664 5672 5674 5682 5687 5691 5695 5697 5700 5694 5698 5688 5710 5714 5717 5715 5714 5712 5711 5711 5711 5710 5709 5708 5707 5707 5706 5705 5705 5704 5704 5704 5703 5701 5700 5699 5699 5699 5699 5699 5698 5697 5697
5693 5694 5688 5673 5663 5658 5667 5668 5672 5679 5684 5686 5688 5688 5688 5683 5692 5696 5700 5709 5711 5711 5707 5707 5705 5705 5705 5704 5703 5703 5702 5702 5702 5702 5701 5701 5700 5700 5699 5698 5698 5697 5696 5695 5696 5695 5694 5693 5692
5691 5689 5678 5661 5643 5653 5659 5666 5672 5676 5678 5679 5678 5681 5679 5676 5685 5690 5696 5702 5707 5703 5700 5699 5699 5697 5697 5697 5698 5698 5698 5698 5698 5697 5697 5696 5696 5695 5695 5694 5694 5694 5692 5691 5692 5691 5691 5689 5689
5685 5678 5663 5657 5651 5656 5658 5664 5667 5669 5672 5675 5673 5668 5672 5674 5676 5681 5688 5694 5698 5692 5692 5691 5691 5689 5688 5689 5690 5691 5692 5693 5693 5692 5691 5691 5690 5690 5690 5690 5690 5690 5689 5689 5687 5687 5687 5686 5685
5675 5664 5649 5643 5645 5653 5653 5659 5661 5662 5663 5665 5668 5660 5661 5668 5671 5675 5680 5684 5684 5681 5682 5684 5684 5683 5682 5682 5685 5685 5685 5684 5685 5687 5687 5687 5687 5685 5685 5686 5686 5686 5686 5686 5684 5683 5683 5683 5682
5663 5654 5642 5636 5638 5646 5650 5654 5657 5655 5654 5657 5657 5656 5656 5662 5665 5666 5671 5673 5674 5672 5673 5675 5677 5677 5676 5676 5679 5679 5678 5677 5678 5679 5681 5681 5681 5681 5680 5681 5681 5682 5682 5683 5682 5680 5680 5680 5680
5656 5645 5636 5630 5633 5638 5650 5649 5649 5649 5648 5649 5654 5647 5650 5655 5657 5659 5660 5664 5665 5665 5667 5667 5666 5668 5668 5671 5671 5671 5673 5673 5674 5675 5675 5676 5677 5677 5677 5677 5677 5676 5677 5678 5678 5677 5676 5675 5676
5647 5641 5627 5623 5627 5635 5643 5644 5645 5643 5641 5643 5647 5642 5642 5651 5651 5651 5653 5655 5656 5656 5657 5658 5659 5660 5660 5660 5662 5665 5665 5669 5670 5673 5672 5672 5672 5672 5671 5672 5673 5672 5673 5673 5674 5673 5672 5672 5672
5643 5629 5617 5624 5618 5632 5633 5634 5638 5641 5639 5638 5638 5641 5645 5646 5645 5646 5647 5648 5648 5648 5648 5651 5652 5653 5653 5655 5658 5660 5662 5663 5665 5667 5666 5667 5666 5667 5666 5667 5669 5668 5668 5668 5669 5669 5669 5667 5667
5632 5618 5621 5624 5622 5626 5629 5627 5629 5633 5633 5631 5632 5634 5637 5639 5640 5639 5638 5639 5640 5641 5641 5642 5645 5647 5649 5648 5649 5652 5654 5655 5656 5657 5658 5659 5660 5660 5661 5662 5663 5663 5663 5664 5664 5665 5665 5664 5664
5626 5621 5621 5623 5621 5623 5623 5623 5623 5622 5625 5631 5632 5629 5631 5632 5632 5631 5631 5632 5633 5633 5635 5636 5638 5639 5640 5642 5643 5643 5644 5646 5647 5648 5651 5651 5653 5653 5655 5657 5658 5658 5659 5660 5661 5660 5660 5660 5659
5624 5624 5621 5620 5618 5619 5618 5618 5618 5617 5626 5631 5632 5629 5627 5626 5625 5625 5624 5625 5626 5627 5628 5629 5631 5632 5632 5633 5635 5635 5637 5639 5639 5640 5642 5644 5645 5647 5648 5650 5650 5651 5652 5653 5653 5653 5654 5654 5653
5622 5620 5617 5614 5613 5612 5614 5611 5613 5615 5620 5623 5624 5622 5621 5619 5618 5619 5619 5618 5620 5620 5621 5622 5624 5625 5626 5628 5628 5628 5630 5631 5631 5633 5635 5637 5638 5640 5641 5643 5644 5645 5646 5646 5646 5646 5646 5647 5646
5616 5614 5612 5610 5608 5608 5609 5607 5608 5614 5611 5615 5617 5616 5616 5617 5616 5613 5614 5614 5614 5615 5615 5617 5618 5619 5620 5621 5621 5622 5623 5625 5626 5628 5629 5631 5632 5633 5635 5637 5638 5639 5639 5640 5639 5640 5640 5640 5641
5614 5607 5604 5604 5603 5603 5604 5603 5604 5610 5609 5612 5614 5611 5613 5614 5613 5614 5613 5612 5613 5611 5611 5611 5612 5613 5614 5615 5615 5616 5617 5619 5621 5622 5625 5626 5627 5628 5629 5631 5632 5632 5633 5633 5633 5633 5634 5634 5632
5605 5597 5593 5599 5597 5599 5601 5600 5607 5606 5608 5609 5610 5608 5610 5611 5613 5611 5610 5610 5608 5609 5608 5607 5606 5607 5608 5609 5609 5610 5612 5613 5615 5617 5617 5619 5620 5621 5623 5624 5625 5626 5626 5626 5626 5626 5625 5626 5626
5584 5585 5586 5591 5592 5593 5595 5598 5602 5604 5602 5608 5608 5607 5607 5607 5608 5608 5607 5606 5606 5603 5602 5600 5600 5600 5601 5602 5604 5605 5606 5607 5608 5609 5611 5612 5613 5614 5615 5616 5616 5617 5617 5617 5617 5617 5617 5618 5618
5591 5587 5584 5581 5588 5587 5588 5591 5596 5599 5600 5604 5603 5603 5603 5604 5606 5606 5603 5601 5598 5597 5596 5594 5593 5593 5594 5595 5597 5599 5600 5600 5601 5602 5603 5604 5604 5606 5607 5608 5608 5609 5610 5609 5608 5608 5608 5608 5607
5589 5585 5582 5586 5584 5583 5582 5585 5594 5599 5596 5598 5599 5598 5599 5599 5600 5598 5597 5594 5591 5589 5589 5587 5587 5588 5590 5591 5593 5594 5594 5594 5595 5595 5596 5596 5597 5597 5598 5599 5600 5600 5599 5599 5599 5598 5598 5598 5597
5580 5580 5574 5578 5579 5577 5578 5584 5591 5594 5597 5598 5600 5598 5597 5596 5594 5592 5590 5587 5585 5582 5581 5582 5581 5583 5583 5584 5585 5585 5585 5586 5585 5586 5587 5588 5589 5589 5590 5590 5591 5591 5590 5590 5587 5587 5589 5588 5588
5575 5570 5570 5570 5569 5562 5567 5582 5588 5594 5594 5594 5594 5598 5597 5595 5593 5588 5585 5580 5576 5575 5574 5574 5574 5575 5576 5576 5578 5579 5579 5580 5581 5580 5579 5578 5579 5579 5580 5581 5580 5581 5580 5580 5580 5578 5577 5579 5578
5574 5569 5567 5565 5554 5555 5549 5568 5582 5585 5590 5592 5593 5588 5595 5594 5588 5583 5578 5573 5569 5565 5565 5565 5564 5565 5566 5567 5570 5569 5569 5571 5570 5569 5568 5568 5569 5569 5569 5570 5569 5570 5571 5571 5571 5571 5569 5568 5570
5564 5558 5553 5544 5527 5529 5547 5539 5581 5576 5587 5591 5590 5583 5581 5589 5588 5580 5571 5567 5561 5558 5556 5555 5556 5556 5557 5558 5559 5559 5559 5559 5561 5561 5561 5561 5560 5559 5560 5560 5560 5559 5560 5561 5561 5561 5560 5560 5560
5547 5549 5533 5508 5508 5505 5540 5548 5565 5576 5585 5586 5582 5577 5574 5570 5573 5569 5562 5556 5551 5548 5546 5546 5547 5547 5547 5547 5547 5548 5549 5550 5551 5552 5552 5552 5551 5551 5552 5550 5549 5549 5550 5551 5552 5551 5550 5549 5549
5548 5538 5504 5495 5475 5527 5513 5516 5559 5568 5574 5575 5577 5567 5565 5561 5555 5552 5552 5548 5543 5539 5538 5538 5537 5538 5538 5537 5536 5537 5538 5539 5541 5541 5539 5540 5541 5542 5543 5542 5541 5541 5542 5542 5541 5540 5538 5536 5534
5538 5536 5505 5492 5492 5512 5507 5526 5563 5556 5554 5555 5561 5556 5551 5549 5544 5539 5536 5537 5535 5532 5529 5527 5527 5529 5529 5527 5527 5527 5529 5530 5530 5530 5529 5530 5530 5532 5533 5533 5532 5532 5532 5531 5529 5528 5525 5522 5519
5525 5517 5516 5495 5474 5479 5514 5528 5550 5547 5544 5543 5542 5545 5541 5536 5533 5529 5523 5521 5520 5520 5519 5517 5518 5519 5517 5516 5517 5518 5520 5522 5521 5520 5519 5520 5521 5522 5524 5524 5523 5521 5520 5517 5514 5510 5507 5505 5503
5524 5513 5502 5490 5481 5482 5495 5503 5533 5545 5537 5528 5526 5530 5528 5526 5522 5519 5514 5509 5505 5504 5506 5508 5508 5507 5505 5505 5506 5508 5510 5512 5512 5510 5510 5510 5511 5511 5512 5512 5511 5508 5504 5500 5498 5496 5493 5491 5490
5506 5502 5489 5484 5471 5466 5478 5522 5518 5526 5521 5515 5514 5516 5515 5513 5511 5508 5502 5496 5495 5492 5493 5496 5496 5495 5496 5495 5496 5498 5502 5503 5502 5500 5500 5499 5500 5501 5501 5499 5496 5494 5491 5489 5485 5483 5482 5481 5480
5500 5495 5488 5476 5471 5449 5455 5496 5519 5508 5507 5506 5505 5505 5501 5499 5495 5493 5491 5484 5481 5481 5482 5484 5485 5485 5485 5485 5486 5489 5492 5492 5491 5490 5491 5490 5493 5492 5489 5487 5484 5483 5483 5481 5481 5479 5477 5474 5471